EW3349 Weather Reports


Display with metric or nautical units.
time (UTC)temp
F
wind
direction
speed
MPH
gust
MPH
rain 1hr
in
rain 24hr
in
rain mn
in
humidity
%
barometer
mb
20260831053410 63 183 0.0 0.0 0.00 0.02 0.00 94 1018.2
20260831052423 63 183 0.0 0.0 0.00 0.02 0.00 94 1018.2
20260831051425 63 183 0.0 0.0 0.00 0.02 0.00 94 1018.3
20260831050440 63 183 0.0 0.0 0.00 0.02 0.00 95 1018.4
20260831045457 62 183 0.0 0.0 0.00 0.02 0.00 94 1018.6
20260831043247 62 183 0.0 0.0 0.00 0.02 0.00 94 1018.7
20260831042249 62 183 0.0 0.0 0.00 0.02 0.00 94 1018.6
20260831041249 62 183 0.0 0.0 0.00 0.02 0.00 94 1018.5
20260831040249 61 183 0.0 0.0 0.00 0.02 0.00 93 1018.4
20260831035311 61 183 0.0 0.0 0.00 0.02 0.02 93 1018.4
20260831034245 62 183 0.0 0.0 0.00 0.02 0.02 93 1018.4
20260831033934 62 183 0.0 0.0 0.00 0.02 0.02 93 1018.4
20260831032915 62 183 0.0 0.0 0.00 0.02 0.02 93 1018.4
20260831031928 62 183 0.0 0.0 0.00 0.02 0.02 93 1018.5
20260831030928 63 167 0.0 0.0 0.00 0.02 0.02 92 1018.5
20260831025901 63 167 0.0 0.0 0.00 0.02 0.02 92 1018.3
20260831023756 63 168 0.0 0.0 0.00 0.02 0.02 92 1018.4
20260831022736 64 168 0.0 0.0 0.00 0.02 0.02 92 1018.5
20260831021726 64 168 0.0 0.0 0.00 0.02 0.02 92 1018.5
20260831020726 64 168 0.0 0.0 0.00 0.02 0.02 92 1018.5
20260831015721 64 168 0.0 0.0 0.00 0.02 0.02 92 1018.5
20260831014734 63 168 0.0 0.0 0.00 0.02 0.02 92 1018.8
20260831013716 63 168 0.0 0.0 0.00 0.02 0.02 92 1018.7
20260831011624 63 168 0.0 0.0 0.00 0.02 0.02 92 1018.5
20260831010622 63 168 0.0 0.0 0.00 0.02 0.02 92 1018.4
20260831005559 63 168 0.0 0.0 0.00 0.02 0.02 92 1018.2
20260831003420 64 168 0.0 0.0 0.00 0.02 0.02 90 1017.8
20260831002432 64 168 0.0 0.0 0.00 0.02 0.02 90 1017.7
20260831001428 64 168 0.0 0.0 0.00 0.02 0.02 90 1017.6
20260830235231 65 168 0.0 0.0 0.00 0.02 0.02 88 1017.5
20260830233112 66 168 0.0 0.0 0.00 0.02 0.02 87 1017.3
20260830230924 67 168 0.0 0.0 0.00 0.02 0.02 87 1017.4
20260830225938 67 168 0.0 0.0 0.00 0.02 0.02 87 1017.4
20260830224940 67 168 0.0 0.0 0.00 0.02 0.02 87 1017.4
20260830223937 67 167 0.0 0.0 0.00 0.02 0.02 87 1017.5
20260830221844 67 20 0.0 0.0 0.00 0.02 0.02 88 1017.4
20260830220847 67 204 0.0 0.0 0.00 0.02 0.02 87 1017.5
20260830215843 67 302 0.0 0.0 0.00 0.02 0.02 87 1017.5
20260830213801 68 356 0.0 3.0 0.00 0.02 0.02 89 1017.4
20260830212806 68 214 0.0 1.0 0.00 0.02 0.02 90 1017.4
20260830211811 68 163 0.0 0.0 0.00 0.02 0.02 90 1017.4
20260830210827 68 154 0.0 0.0 0.00 0.02 0.02 90 1017.4
20260830205813 68 185 0.0 1.0 0.00 0.02 0.02 90 1017.5
20260830204804 68 210 0.0 1.0 0.00 0.02 0.02 90 1017.6
20260830203805 68 219 0.0 0.0 0.00 0.02 0.02 90 1017.6
20260830202823 68 156 0.0 0.0 0.00 0.02 0.02 90 1017.5
20260830201753 68 184 0.0 2.0 0.00 0.02 0.02 90 1017.4
20260830200718 68 175 0.0 1.0 0.00 0.02 0.02 91 1017.3
20260830193354 67 161 0.0 0.0 0.00 0.02 0.02 92 1017.6
20260830192408 67 184 0.0 0.0 0.00 0.02 0.02 92 1017.6
20260830191349 67 168 0.0 0.0 0.00 0.02 0.02 92 1017.7
20260830190345 67 168 0.0 0.0 0.00 0.02 0.02 91 1017.8
20260830185351 67 176 0.0 0.0 0.00 0.01 0.01 91 1017.9
20260830184415 67 153 0.0 0.0 0.00 0.01 0.01 91 1017.9
20260830183342 67 337 0.0 0.0 0.00 0.01 0.01 90 1018.0
20260830182349 67 19 0.0 1.0 0.00 0.01 0.01 90 1018.1
20260830181404 67 163 0.0 0.0 0.00 0.01 0.01 90 1018.1
20260830180400 67 159 0.0 0.0 0.00 0.01 0.01 90 1018.1
20260830175411 67 151 0.0 0.0 0.00 0.01 0.01 90 1018.1
20260830173247 67 166 0.0 3.0 0.00 0.01 0.01 89 1018.3
20260830171043 66 163 0.0 0.0 0.00 0.01 0.01 88 1018.2
20260830170012 67 173 0.0 0.0 0.00 0.01 0.01 88 1018.2
20260830165036 67 143 0.0 0.0 0.00 0.01 0.01 86 1018.2
20260830162951 68 187 0.0 0.0 0.00 0.01 0.01 83 1018.4
20260830161959 68 185 0.0 2.0 0.00 0.00 0.00 81 1018.3
20260830160926 69 209 0.0 0.0 0.00 0.00 0.00 81 1018.3
20260830155858 69 170 0.0 1.0 0.00 0.00 0.00 81 1018.3
20260830154831 68 321 0.0 1.0 0.00 0.00 0.00 81 1018.3
20260830153810 69 178 0.0 0.0 0.00 0.00 0.00 82 1018.3
20260830152806 69 162 0.0 0.0 0.00 0.00 0.00 80 1018.1
20260830151807 70 162 0.0 0.0 0.00 0.00 0.00 78 1017.9
20260830150746 70 162 0.0 0.0 0.00 0.00 0.00 74 1018.0
20260830145718 69 174 0.0 0.0 0.00 0.00 0.00 74 1018.0
20260830144646 70 158 0.0 1.0 0.00 0.00 0.00 74 1018.1
20260830142553 69 165 0.0 0.0 0.00 0.00 0.00 75 1017.8
20260830141526 69 165 0.0 0.0 0.00 0.00 0.00 73 1017.8
20260830140453 69 165 0.0 0.0 0.00 0.00 0.00 72 1017.7
20260830135438 69 169 0.0 0.0 0.00 0.00 0.00 73 1017.7
20260830134408 69 188 0.0 0.0 0.00 0.00 0.00 72 1017.7
20260830133426 69 344 0.0 1.0 0.00 0.00 0.00 71 1017.6
20260830132352 69 158 0.0 0.0 0.00 0.00 0.00 70 1017.6
20260830131407 69 169 0.0 0.0 0.00 0.00 0.00 71 1017.4
20260830130333 68 169 0.0 0.0 0.00 0.00 0.00 71 1017.6
20260830125333 68 169 0.0 0.0 0.00 0.00 0.00 71 1017.6
20260830124339 68 168 0.0 0.0 0.00 0.00 0.00 72 1017.6
20260830123401 68 171 0.0 1.0 0.00 0.00 0.00 71 1017.8
20260830122406 67 167 0.0 0.0 0.00 0.00 0.00 71 1017.7
20260830121348 67 169 0.0 0.0 0.00 0.00 0.00 71 1017.7
20260830120353 67 152 0.0 0.0 0.00 0.00 0.00 71 1017.7
20260830114217 67 165 0.0 0.0 0.00 0.00 0.00 71 1017.9
20260830113227 67 165 0.0 0.0 0.00 0.00 0.00 70 1018.0
20260830112230 67 165 0.0 0.0 0.00 0.00 0.00 71 1017.9
20260830111209 67 169 0.0 0.0 0.00 0.00 0.00 70 1017.9
20260830110201 67 169 0.0 0.0 0.00 0.00 0.00 70 1017.7
20260830105139 67 86 0.0 0.0 0.00 0.00 0.00 70 1017.8
20260830104132 66 160 0.0 0.0 0.00 0.00 0.00 70 1017.7
20260830103133 67 168 0.0 0.0 0.00 0.00 0.00 70 1017.8
20260830100957 67 175 0.0 0.0 0.00 0.00 0.00 69 1017.9
20260830100000 67 173 0.0 0.0 0.00 0.00 0.00 69 1018.0
20260830095024 67 207 0.0 0.0 0.00 0.00 0.00 69 1018.2
20260830094047 67 146 0.0 1.0 0.00 0.00 0.00 69 1018.1
20260830093105 67 198 0.0 0.0 0.00 0.00 0.00 69 1018.0
20260830092058 67 199 0.0 0.0 0.00 0.00 0.00 69 1018.0
20260830091111 67 164 0.0 0.0 0.00 0.00 0.00 69 1018.1
20260830084923 67 178 0.0 0.0 0.00 0.00 0.00 68 1018.1
20260830083948 67 179 0.0 1.0 0.00 0.00 0.00 68 1018.2
20260830082946 67 195 0.0 2.0 0.00 0.00 0.00 68 1018.3
20260830075802 67 169 0.0 1.0 0.00 0.00 0.00 68 1018.5
20260830074755 67 176 0.0 1.0 0.00 0.00 0.00 68 1018.5
20260830073803 67 156 0.0 0.0 0.00 0.00 0.00 69 1018.5
20260830072804 67 158 0.0 1.0 0.00 0.00 0.00 69 1018.5
20260830071827 68 163 0.0 1.0 0.00 0.00 0.00 69 1018.5
20260830070826 68 164 0.0 4.0 0.00 0.00 0.00 69 1018.5
20260830065820 68 167 0.0 4.0 0.00 0.00 0.00 68 1018.5
20260830064834 68 187 0.0 4.0 0.00 0.00 0.00 69 1018.6
20260830063838 68 155 0.0 4.0 0.00 0.00 0.00 69 1018.7
20260830061624 67 173 0.0 2.0 0.00 0.00 0.00 70 1018.9
20260830060628 67 178 0.0 2.0 0.00 0.00 0.00 71 1019.0
20260830055619 67 207 0.0 2.0 0.00 0.00 0.00 72 1019.0
20260830054631 67 174 0.0 2.0 0.00 0.00 0.00 72 1019.0